[[{"header":{"parameterUnit":"m.s-1","parameterCategory":1,"la1":30.2992,"la2":30.254,"lo1":-89.0895,"lo2":-89.0443,"dy":0.0025,"dx":0.0025,"nx":19,"ny":19,"refTime":"2026-05-17T21:00:00:Z","depth":0,"parameterNumber":2,"parameterNumberName":"U-component_of_WINDS"},"data":[0,0,0,-4.2512,-4.2515,-4.2638,-4.2639,-4.2805,-4.2807,0,0,0,0,0,0,0,0,0,0,0,-4.2481,-4.2482,-4.2512,-4.2515,-4.2638,-4.2639,-4.2805,-4.2807,0,0,0,0,0,0,0,0,0,0,0,-4.248,-4.2482,-4.2484,-4.2516,-4.2638,-4.2639,-4.2805,-4.2708,0,0,0,0,0,0,0,0,0,0,-4.2587,-4.2564,-4.2481,-4.2484,-4.2516,-4.2638,-4.2639,-4.2704,-4.2715,-4.2753,0,-4.2789,0,-4.2801,-4.2819,-4.2819,0,0,0,-4.2511,-4.2555,-4.2583,-4.2484,-4.2517,-4.2638,-4.2582,-4.271,-4.2722,-4.2768,-4.2792,-4.2798,-4.2804,-4.282,-4.2821,-4.3057,-4.3058,0,0,-4.2504,-4.2506,-4.2575,-4.2591,-4.2573,-4.2578,-4.2585,-4.2717,-4.2743,-4.2792,-4.2801,-4.2806,-4.2821,-4.2822,-4.3056,-4.3057,0,0,0,-4.2487,-4.2502,-4.2526,-4.2585,-4.2606,-4.2581,-4.259,-4.2737,-4.2745,-4.2803,-4.2808,-4.2822,-4.2824,-4.3054,-4.3056,-4.312,0,0,0,-4.2483,-4.2492,-4.2524,-4.2526,-4.2604,-4.2673,-4.2608,-4.2736,-4.2751,-4.2807,-4.2822,-4.2826,-4.3053,-4.3055,-4.3115,-4.315,0,0,0,-4.2471,-4.249,-4.251,-4.2526,-4.2579,-4.2671,-4.2687,-4.2739,-4.2754,-4.2819,-4.2826,-4.3052,-4.3055,-4.3111,-4.3143,-4.3211,0,0,0,-4.2459,-4.2566,-4.2511,-4.2633,-4.2578,-4.271,-4.2686,-4.2785,-4.2848,-4.2823,-4.3053,-4.3056,-4.311,-4.3139,-4.3206,-4.3267,-4.3293,0,0,-4.2595,-4.2583,-4.2655,-4.2609,-4.2751,-4.2691,-4.2844,-4.29,-4.2906,-4.3006,-4.3012,-4.3117,-4.3142,-4.321,-4.3442,-4.3463,0,0,0,-4.2698,-4.275,-4.2787,-4.2847,-4.2893,-4.2935,-4.2968,-4.2989,-4.3074,-4.2958,-4.3161,-4.3176,-4.3216,-4.3245,-4.3262,-4.3295,-4.307,-4.307,-4.307,-4.2893,-4.2893,-4.3011,-4.3026,-4.3085,-4.3118,-4.3166,-4.32,-4.3183,-4.3232,-4.326,-4.3401,-4.3435,-4.3449,-4.3483,-4.3295,-4.3295,-4.3295,-4.3295,-4.3092,-4.3163,-4.3139,-4.3244,-4.3243,-4.3332,-4.3368,-4.3354,-4.3435,-4.338,-4.3415,-4.3352,-4.3471,-4.3501,-4.33,-4.3299,-4.3299,-4.3298,-4.3298,-4.3218,-4.3252,-4.3276,-4.3362,-4.3429,-4.344,-4.352,-4.3517,-4.3516,-4.355,-4.3579,-4.3578,-4.3575,-4.3565,-4.3565,-4.3566,-4.3566,-4.3567,-4.3567,-4.3338,-4.3363,-4.343,-4.3487,-4.3525,-4.3574,-4.3608,-4.3646,-4.3686,-4.3678,-4.3678,-4.3655,-4.3484,-4.3439,-4.3574,-4.3573,-4.3572,-4.3571,-4.3571,-4.3536,-4.349,-4.3594,-4.3632,-4.3698,-4.3763,-4.376,-4.3835,-4.3866,-4.3905,-4.3876,-4.375,-4.3737,-4.3723,-4.3685,-4.3876,-4.3876,-4.3876,-4.3876,-4.364,-4.3634,-4.3738,-4.3798,-4.3857,-4.3864,-4.398,-4.4008,-4.4029,-4.4048,-4.4021,-4.3972,-4.3958,-4.3953,-4.3934,-4.3899,-4.4141,-4.4141,-4.4141,-4.3761,-4.376,-4.3859,-4.3879,-4.393,-4.3975,-4.4083,-4.4153,-4.4169,-4.4152,-4.4062,-4.4051,-4.3973,-4.3948,-4.3926,-4.3897,-4.3833,0,0]},{"header":{"parameterUnit":"m.s-1","parameterCategory":1,"la1":30.2992,"la2":30.254,"lo1":-89.0895,"lo2":-89.0443,"dy":0.0025,"dx":0.0025,"nx":19,"ny":19,"refTime":"2026-05-17T21:00:00:Z","depth":0,"parameterNumber":3,"parameterNumberName":"V-component_of_WINDS"},"data":[0,0,0,2.7364,2.7364,2.7382,2.7382,2.7418,2.7418,0,0,0,0,0,0,0,0,0,0,0,2.7367,2.7367,2.7364,2.7364,2.7382,2.7382,2.7418,2.7418,0,0,0,0,0,0,0,0,0,0,0,2.7366,2.7367,2.7368,2.7364,2.7382,2.7382,2.7418,2.7399,0,0,0,0,0,0,0,0,0,0,2.738,2.7391,2.7367,2.7368,2.7364,2.7382,2.7382,2.7398,2.7401,2.7416,0,2.7431,0,2.7425,2.7421,2.7422,0,0,0,2.7358,2.7389,2.7387,2.7368,2.7365,2.7382,2.7372,2.7399,2.7402,2.7419,2.7432,2.7433,2.7426,2.7422,2.7422,2.7531,2.7532,0,0,2.7357,2.7374,2.7385,2.7389,2.7387,2.7372,2.7373,2.7401,2.7416,2.7432,2.7433,2.7427,2.7422,2.7423,2.753,2.7531,0,0,0,2.7358,2.7374,2.737,2.7387,2.739,2.7372,2.7373,2.7415,2.7412,2.7434,2.7427,2.7422,2.7423,2.7529,2.753,2.7587,0,0,0,2.7358,2.7374,2.737,2.7381,2.7389,2.7402,2.7387,2.741,2.7413,2.7427,2.7422,2.7424,2.7528,2.753,2.7584,2.7611,0,0,0,2.7363,2.7375,2.738,2.7381,2.739,2.7401,2.74,2.741,2.7409,2.7422,2.7424,2.7528,2.7529,2.758,2.7606,2.7645,0,0,0,2.7373,2.743,2.7382,2.7443,2.739,2.7436,2.74,2.7434,2.7451,2.7423,2.7528,2.753,2.7579,2.7603,2.7642,2.7682,2.77,0,0,2.7454,2.744,2.7475,2.7432,2.7492,2.7432,2.75,2.75,2.7485,2.7516,2.7519,2.7585,2.7606,2.7645,2.7795,2.781,0,0,0,2.7506,2.7531,2.7543,2.7561,2.7563,2.7567,2.7554,2.7554,2.758,2.7505,2.7609,2.7621,2.7643,2.7661,2.7674,2.7692,2.7539,2.7539,2.7539,2.7645,2.7624,2.768,2.7662,2.768,2.7667,2.768,2.7677,2.765,2.7675,2.7684,2.7778,2.78,2.781,2.7829,2.7703,2.7704,2.7704,2.7704,2.7763,2.7796,2.7759,2.7801,2.7779,2.7813,2.7803,2.7783,2.7813,2.7769,2.7788,2.7743,2.7826,2.7842,2.7708,2.7707,2.7707,2.7706,2.7706,2.7852,2.7864,2.7864,2.7889,2.791,2.7889,2.7919,2.7897,2.7877,2.7895,2.7903,2.7902,2.7899,2.7901,2.7901,2.7901,2.7902,2.7902,2.7902,2.7945,2.7943,2.7971,2.7979,2.7988,2.7998,2.7986,2.7995,2.7999,2.798,2.798,2.7951,2.7838,2.7811,2.7907,2.7906,2.7905,2.7905,2.7905,2.8073,2.8041,2.8085,2.8095,2.8102,2.8126,2.8098,2.8117,2.8121,2.8137,2.8104,2.8024,2.8008,2.7998,2.7975,2.8108,2.8108,2.8108,2.8108,2.815,2.8139,2.818,2.8197,2.8211,2.819,2.8242,2.8234,2.822,2.8222,2.8199,2.8167,2.8157,2.8147,2.8134,2.8112,2.8277,2.8277,2.8277,2.8228,2.8218,2.8266,2.8253,2.8258,2.8262,2.831,2.8331,2.8309,2.8284,2.8222,2.8215,2.8163,2.8146,2.812,2.81,2.806,0,0]}]]